TimeEST,TemperatureF,Dew PointF,Humidity,Sea Level PressureIn,VisibilityMPH,Wind Direction,Wind SpeedMPH,Gust SpeedMPH,PrecipitationIn,Events,Conditions,WindDirDegrees,DateUTC
12:15 AM,15.6,10.9,82,30.21,10.0,Calm,Calm,-,N/A,,Clear,0,2013-01-03 05:15:00
12:35 AM,15.3,11.1,84,30.21,10.0,Calm,Calm,-,N/A,,Clear,0,2013-01-03 05:35:00
12:55 AM,15.4,11.1,83,30.21,7.0,Calm,Calm,-,N/A,,Clear,0,2013-01-03 05:55:00
1:15 AM,14.7,10.6,84,30.20,7.0,Calm,Calm,-,N/A,,Clear,0,2013-01-03 06:15:00
1:35 AM,15.3,11.1,84,30.21,10.0,Calm,Calm,-,N/A,,Clear,0,2013-01-03 06:35:00
1:55 AM,14.4,10.0,83,30.21,7.0,Calm,Calm,-,N/A,,Clear,0,2013-01-03 06:55:00
2:15 AM,13.3,9.5,85,30.21,5.0,Calm,Calm,-,N/A,,Clear,0,2013-01-03 07:15:00
2:35 AM,12.0,7.9,83,30.21,4.0,Calm,Calm,-,N/A,,Clear,0,2013-01-03 07:35:00
2:55 AM,11.5,7.5,84,30.21,5.0,Calm,Calm,-,N/A,,Clear,0,2013-01-03 07:55:00
3:15 AM,10.2,6.3,84,30.21,5.0,Calm,Calm,-,N/A,,Clear,0,2013-01-03 08:15:00
3:35 AM,9.9,5.7,83,30.20,5.0,Calm,Calm,-,N/A,,Clear,0,2013-01-03 08:35:00
3:55 AM,9.9,5.7,83,30.20,7.0,Calm,Calm,-,N/A,,Clear,0,2013-01-03 08:55:00
4:15 AM,9.9,5.9,84,30.20,5.0,Calm,Calm,-,N/A,,Clear,0,2013-01-03 09:15:00
4:35 AM,10.4,6.4,84,30.20,4.0,Calm,Calm,-,N/A,,Clear,0,2013-01-03 09:35:00
4:55 AM,10.6,6.6,84,30.20,5.0,Calm,Calm,-,N/A,,Clear,0,2013-01-03 09:55:00
5:15 AM,9.1,4.6,82,30.20,7.0,Calm,Calm,-,N/A,,Clear,0,2013-01-03 10:15:00
5:35 AM,9.0,4.6,83,30.21,4.0,Calm,Calm,-,N/A,,Clear,0,2013-01-03 10:35:00
5:55 AM,8.8,4.3,82,30.21,4.0,Calm,Calm,-,N/A,,Clear,0,2013-01-03 10:55:00
6:15 AM,7.9,3.4,82,30.21,7.0,Calm,Calm,-,N/A,,Clear,0,2013-01-03 11:15:00
6:35 AM,7.5,2.8,81,30.21,5.0,Calm,Calm,-,N/A,,Haze,0,2013-01-03 11:35:00
6:55 AM,7.5,3.0,82,30.22,7.0,Calm,Calm,-,N/A,,Clear,0,2013-01-03 11:55:00
7:15 AM,7.0,2.3,81,30.22,7.0,Calm,Calm,-,N/A,,Clear,0,2013-01-03 12:15:00
7:35 AM,7.0,2.5,82,30.22,7.0,Calm,Calm,-,N/A,,Clear,0,2013-01-03 12:35:00
7:55 AM,7.5,2.8,81,30.23,7.0,Calm,Calm,-,N/A,,Clear,0,2013-01-03 12:55:00
8:15 AM,6.6,1.9,81,30.22,7.0,SSE,4.6,-,N/A,,Clear,160,2013-01-03 13:15:00
8:35 AM,6.1,1.6,82,30.23,5.0,Calm,Calm,-,N/A,,Clear,0,2013-01-03 13:35:00
8:55 AM,8.8,4.8,84,30.22,5.0,South,3.5,-,N/A,,Clear,180,2013-01-03 13:55:00
9:15 AM,11.7,7.7,84,30.22,5.0,South,3.5,-,N/A,,Clear,170,2013-01-03 14:15:00
9:35 AM,14.9,11.3,86,30.22,7.0,South,8.1,-,N/A,,Clear,180,2013-01-03 14:35:00
9:55 AM,17.8,13.5,83,30.23,7.0,SSW,6.9,-,N/A,,Clear,210,2013-01-03 14:55:00
10:15 AM,18.0,13.3,82,30.23,7.0,SW,4.6,-,N/A,,Clear,220,2013-01-03 15:15:00
10:35 AM,19.9,14.2,78,30.23,10.0,SSW,8.1,-,N/A,,Clear,210,2013-01-03 15:35:00
10:55 AM,22.5,14.9,73,30.23,10.0,SW,6.9,-,N/A,,Clear,220,2013-01-03 15:55:00
11:15 AM,23.5,14.9,70,30.23,10.0,SW,4.6,-,N/A,,Clear,220,2013-01-03 16:15:00
11:35 AM,24.8,15.1,67,30.21,10.0,SW,5.8,-,N/A,,Clear,220,2013-01-03 16:35:00
11:55 AM,25.9,14.7,63,30.21,10.0,Calm,Calm,-,N/A,,Clear,0,2013-01-03 16:55:00
12:15 PM,27.7,14.9,59,30.21,10.0,SW,4.6,-,N/A,,Clear,230,2013-01-03 17:15:00
12:35 PM,29.5,14.0,53,30.20,10.0,WSW,9.2,-,N/A,,Clear,240,2013-01-03 17:35:00
12:55 PM,30.4,14.0,51,30.20,10.0,WSW,10.4,-,N/A,,Clear,240,2013-01-03 17:55:00
1:15 PM,30.9,13.8,49,30.18,10.0,SW,9.2,17.3,N/A,,Clear,230,2013-01-03 18:15:00
1:35 PM,31.3,14.4,50,30.18,10.0,SW,10.4,-,N/A,,Clear,230,2013-01-03 18:35:00
1:55 PM,31.8,14.9,50,30.18,10.0,WSW,10.4,-,N/A,,Clear,250,2013-01-03 18:55:00
2:15 PM,31.8,15.3,50,30.18,10.0,SW,9.2,-,N/A,,Clear,230,2013-01-03 19:15:00
2:35 PM,32.0,15.4,51,30.18,10.0,WSW,11.5,-,N/A,,Clear,240,2013-01-03 19:35:00
2:55 PM,32.0,16.5,53,30.19,10.0,WSW,10.4,-,N/A,,Mostly Cloudy,240,2013-01-03 19:55:00
3:15 PM,32.2,17.2,54,30.20,10.0,WSW,11.5,-,N/A,,Overcast,250,2013-01-03 20:15:00
3:35 PM,32.0,17.1,54,30.20,10.0,WSW,10.4,-,N/A,,Scattered Clouds,240,2013-01-03 20:35:00
3:55 PM,32.0,18.0,56,30.21,10.0,WSW,10.4,-,N/A,,Clear,250,2013-01-03 20:55:00
4:15 PM,32.0,19.6,60,30.22,10.0,WSW,10.4,-,N/A,,Mostly Cloudy,250,2013-01-03 21:15:00
4:55 PM,31.8,20.8,64,30.23,10.0,West,11.5,-,N/A,,Overcast,260,2013-01-03 21:55:00
5:15 PM,31.3,21.2,66,30.23,10.0,WSW,6.9,-,N/A,,Overcast,250,2013-01-03 22:15:00
5:35 PM,30.9,21.6,68,30.24,10.0,WSW,8.1,-,N/A,,Overcast,240,2013-01-03 22:35:00
5:55 PM,30.6,21.6,69,30.24,10.0,WSW,6.9,-,N/A,,Overcast,240,2013-01-03 22:55:00
6:15 PM,30.2,21.6,70,30.25,10.0,WSW,9.2,-,N/A,,Overcast,240,2013-01-03 23:15:00
6:35 PM,30.4,21.9,71,30.25,10.0,WSW,8.1,-,N/A,,Overcast,250,2013-01-03 23:35:00
6:55 PM,30.4,22.1,71,30.26,10.0,WSW,8.1,-,N/A,,Overcast,240,2013-01-03 23:55:00
7:15 PM,30.4,22.1,71,30.26,10.0,WSW,6.9,-,N/A,,Overcast,240,2013-01-04 00:15:00
7:35 PM,30.2,22.1,72,30.26,10.0,SW,8.1,-,N/A,,Overcast,230,2013-01-04 00:35:00
7:55 PM,30.2,22.1,72,30.26,10.0,WSW,8.1,-,N/A,,Overcast,240,2013-01-04 00:55:00
8:15 PM,30.2,22.1,72,30.26,10.0,WSW,6.9,-,N/A,,Overcast,250,2013-01-04 01:15:00
8:35 PM,30.2,22.1,72,30.26,10.0,WSW,8.1,-,N/A,,Overcast,240,2013-01-04 01:35:00
8:55 PM,30.2,22.1,72,30.27,10.0,WSW,8.1,-,N/A,,Overcast,240,2013-01-04 01:55:00
9:15 PM,30.4,22.1,71,30.27,10.0,WSW,6.9,-,N/A,,Overcast,240,2013-01-04 02:15:00
9:35 PM,30.4,22.1,71,30.27,10.0,WSW,9.2,-,N/A,,Overcast,250,2013-01-04 02:35:00
9:55 PM,30.9,22.1,70,30.27,10.0,WSW,5.8,-,N/A,,Overcast,250,2013-01-04 02:55:00
10:15 PM,31.1,21.9,69,30.28,10.0,West,12.7,18.4,N/A,,Overcast,280,2013-01-04 03:15:00
10:35 PM,31.6,21.4,66,30.28,10.0,West,12.7,18.4,N/A,,Overcast,280,2013-01-04 03:35:00
10:55 PM,31.6,21.6,66,30.28,10.0,West,9.2,-,N/A,,Overcast,280,2013-01-04 03:55:00
11:15 PM,31.6,21.4,66,30.28,10.0,West,10.4,-,N/A,,Overcast,260,2013-01-04 04:15:00
11:35 PM,31.5,21.7,67,30.28,10.0,WSW,8.1,-,N/A,,Overcast,250,2013-01-04 04:35:00
11:55 PM,31.1,22.1,69,30.27,10.0,WSW,8.1,-,N/A,,Overcast,240,2013-01-04 04:55:00